User: anonymous   Login
Location: Newark
(43.4306°N, 0.3089°E)
Time: 23:00:13
(UTC+00:00)
Language:

Courier 1B - Orbit

View from above orbital plane
View from above orbital plane
View from above satellite
View from above satellite

Ground track
Ground track

The orbit data is extracted from the following two-line orbital elements,

1    58U 60013A   19233.30323959  .00000099  00000-0  23291-4 0  9994
2    58  28.3256 182.4382 0165053  96.0367 265.9012 13.46318925898530
Epoch (UTC): 21 August 2019 07:16:39
Eccentricity: 0.0165053
inclination: 28.3256°
perigee height: 962 km
apogee height: 1209 km
right ascension of ascending node: 182.4382°
argument of perigee: 96.0367°
revolutions per day: 13.46318925
mean anomaly at epoch: 265.9012°
orbit number at epoch: 89853

The dashed part of the orbit path shows where the satellite is in the earth's shadow,  

DLR